| time (UTC) | temp F | wind direction | speed MPH | gust MPH | rain 1hr in | rain 24hr in | rain mn in | humidity % | barometer mb |
| 20260504200304 | 68 | 44 | 1.0 | 5.0 | 0.00 | 0.18 | 0.18 | 85 | 1009.7 |
| 20260504195804 | 68 | 53 | 2.0 | 3.0 | 0.00 | 0.18 | 0.18 | 85 | 1009.6 |
| 20260504195304 | 68 | 53 | 2.0 | 6.0 | 0.00 | 0.18 | 0.18 | 85 | 1009.5 |
| 20260504194303 | 68 | 57 | 4.0 | 9.0 | 0.00 | 0.18 | 0.18 | 84 | 1009.2 |
| 20260504193804 | 68 | 34 | 5.0 | 9.0 | 0.00 | 0.18 | 0.18 | 84 | 1009.2 |
| 20260504193304 | 68 | 39 | 6.0 | 12.0 | 0.00 | 0.18 | 0.18 | 84 | 1009.1 |
| 20260504192304 | 68 | 30 | 5.0 | 10.0 | 0.00 | 0.18 | 0.18 | 83 | 1009.0 |
| 20260504191303 | 69 | 37 | 6.0 | 14.0 | 0.00 | 0.18 | 0.18 | 82 | 1008.8 |
| 20260504190804 | 69 | 17 | 6.0 | 10.0 | 0.00 | 0.18 | 0.18 | 81 | 1008.8 |
| 20260504190303 | 70 | 3 | 7.0 | 12.0 | 0.00 | 0.18 | 0.18 | 80 | 1008.7 |
| 20260504185805 | 71 | 9 | 8.0 | 17.0 | 0.00 | 0.18 | 0.18 | 78 | 1008.6 |
| 20260504185304 | 72 | 1 | 7.0 | 13.0 | 0.00 | 0.18 | 0.18 | 77 | 1008.5 |
| 20260504184804 | 72 | 10 | 5.0 | 10.0 | 0.00 | 0.18 | 0.18 | 76 | 1008.3 |
| 20260504184303 | 73 | 2 | 6.0 | 9.0 | 0.00 | 0.18 | 0.18 | 75 | 1008.2 |
| 20260504183804 | 73 | 147 | 2.0 | 5.0 | 0.00 | 0.18 | 0.18 | 74 | 1008.0 |
| 20260504183304 | 73 | 148 | 0.0 | 0.0 | 0.00 | 0.18 | 0.18 | 74 | 1007.9 |
| 20260504182304 | 73 | 148 | 2.0 | 6.0 | 0.00 | 0.18 | 0.18 | 75 | 1007.7 |
| 20260504181803 | 73 | 148 | 3.0 | 6.0 | 0.00 | 0.18 | 0.18 | 75 | 1007.6 |
| 20260504181304 | 73 | 148 | 3.0 | 6.0 | 0.00 | 0.18 | 0.18 | 76 | 1007.6 |
| 20260504180804 | 73 | 146 | 5.0 | 6.0 | 0.00 | 0.18 | 0.18 | 76 | 1007.5 |
| 20260504180304 | 73 | 146 | 4.0 | 6.0 | 0.00 | 0.18 | 0.18 | 76 | 1007.4 |
| 20260504175804 | 73 | 134 | 6.0 | 10.0 | 0.00 | 0.18 | 0.18 | 76 | 1007.4 |
| 20260504175304 | 73 | 141 | 6.0 | 8.0 | 0.00 | 0.18 | 0.18 | 75 | 1007.4 |
| 20260504174803 | 74 | 157 | 6.0 | 10.0 | 0.00 | 0.18 | 0.18 | 75 | 1007.5 |
| 20260504174305 | 74 | 140 | 6.0 | 8.0 | 0.00 | 0.18 | 0.18 | 74 | 1007.5 |
| 20260504173804 | 74 | 139 | 5.0 | 7.0 | 0.00 | 0.18 | 0.18 | 75 | 1007.5 |
| 20260504172305 | 74 | 140 | 7.0 | 12.0 | 0.00 | 0.18 | 0.18 | 75 | 1007.4 |
| 20260504170805 | 74 | 63 | 6.0 | 12.0 | 0.00 | 0.18 | 0.18 | 73 | 1007.5 |
| 20260504170304 | 74 | 118 | 6.0 | 12.0 | 0.00 | 0.18 | 0.18 | 73 | 1007.5 |
| 20260504150305 | 74 | 94 | 9.0 | 14.0 | 0.00 | 0.18 | 0.18 | 72 | 1008.1 |
| 20260504141305 | 74 | 130 | 6.0 | 14.0 | 0.00 | 0.18 | 0.18 | 71 | 1008.6 |
| 20260504140804 | 74 | 56 | 7.0 | 13.0 | 0.00 | 0.18 | 0.18 | 71 | 1008.7 |
| 20260504140304 | 74 | 85 | 6.0 | 12.0 | 0.00 | 0.18 | 0.18 | 72 | 1008.8 |
| 20260504130305 | 72 | 156 | 6.0 | 10.0 | 0.00 | 0.18 | 0.18 | 78 | 1009.7 |
| 20260504120305 | 69 | 103 | 4.0 | 7.0 | 0.01 | 0.18 | 0.18 | 86 | 1010.4 |
| 20260504110304 | 67 | 166 | 0.0 | 1.0 | 0.01 | 0.17 | 0.17 | 88 | 1011.1 |
| 20260504081804 | 68 | 156 | 1.0 | 2.0 | 0.00 | 0.03 | 0.00 | 78 | 1011.1 |
| 20260504081304 | 68 | 157 | 0.0 | 2.0 | 0.00 | 0.03 | 0.00 | 77 | 1011.2 |
| 20260504080805 | 68 | 156 | 0.0 | 1.0 | 0.00 | 0.03 | 0.00 | 78 | 1011.1 |
| 20260504080304 | 68 | 157 | 0.0 | 2.0 | 0.00 | 0.03 | 0.00 | 78 | 1011.2 |
| 20260504070304 | 65 | 156 | 1.0 | 5.0 | 0.00 | 0.03 | 0.00 | 87 | 1011.2 |
| 20260504050304 | 63 | 148 | 1.0 | 3.0 | 0.00 | 0.03 | 0.00 | 88 | 1010.7 |
| 20260504045804 | 63 | 148 | 0.0 | 0.0 | 0.00 | 0.03 | 0.00 | 88 | 1010.8 |
| 20260504045304 | 63 | 148 | 0.0 | 1.0 | 0.00 | 0.03 | 0.00 | 88 | 1010.8 |
| 20260504044805 | 63 | 148 | 1.0 | 2.0 | 0.00 | 0.03 | 0.00 | 88 | 1010.7 |
| 20260504044304 | 63 | 148 | 0.0 | 2.0 | 0.00 | 0.03 | 0.00 | 88 | 1010.8 |
| 20260504043804 | 63 | 148 | 0.0 | 0.0 | 0.00 | 0.03 | 0.00 | 88 | 1010.8 |
| 20260504043305 | 63 | 148 | 0.0 | 0.0 | 0.00 | 0.03 | 0.00 | 88 | 1010.8 |
| 20260504042804 | 63 | 148 | 0.0 | 0.0 | 0.00 | 0.03 | 0.00 | 88 | 1010.8 |
| 20260504041804 | 63 | 148 | 1.0 | 3.0 | 0.00 | 0.03 | 0.00 | 88 | 1011.0 |
| 20260504041304 | 63 | 148 | 0.0 | 0.0 | 0.00 | 0.03 | 0.00 | 88 | 1011.0 |
| 20260504040804 | 63 | 148 | 0.0 | 0.0 | 0.00 | 0.03 | 0.00 | 88 | 1011.0 |
| 20260504040304 | 63 | 148 | 0.0 | 0.0 | 0.00 | 0.03 | 0.00 | 88 | 1010.9 |
| 20260504035804 | 63 | 148 | 0.0 | 0.0 | 0.00 | 0.03 | 0.00 | 88 | 1011.1 |
| 20260504035305 | 63 | 148 | 0.0 | 0.0 | 0.00 | 0.03 | 0.00 | 88 | 1011.1 |
| 20260504034304 | 64 | 148 | 0.0 | 0.0 | 0.00 | 0.03 | 0.00 | 88 | 1011.3 |
| 20260504033804 | 64 | 148 | 0.0 | 0.0 | 0.00 | 0.03 | 0.00 | 88 | 1011.4 |
| 20260504033304 | 64 | 148 | 0.0 | 2.0 | 0.00 | 0.03 | 0.00 | 88 | 1011.5 |
| 20260504032804 | 64 | 148 | 0.0 | 2.0 | 0.00 | 0.03 | 0.00 | 88 | 1011.6 |
| 20260504032304 | 64 | 148 | 0.0 | 2.0 | 0.00 | 0.03 | 0.00 | 88 | 1011.6 |
| 20260504031804 | 64 | 148 | 0.0 | 1.0 | 0.00 | 0.03 | 0.00 | 88 | 1011.7 |
| 20260504031304 | 64 | 148 | 0.0 | 2.0 | 0.00 | 0.03 | 0.00 | 87 | 1011.7 |
| 20260504025804 | 64 | 148 | 0.0 | 0.0 | 0.00 | 0.03 | 0.00 | 87 | 1011.9 |
| 20260504025304 | 64 | 148 | 0.0 | 2.0 | 0.00 | 0.03 | 0.00 | 87 | 1011.9 |
| 20260504024304 | 64 | 148 | 0.0 | 2.0 | 0.00 | 0.03 | 0.00 | 86 | 1012.0 |
| 20260504023804 | 65 | 148 | 0.0 | 3.0 | 0.00 | 0.04 | 0.00 | 86 | 1011.9 |
| 20260504023304 | 65 | 148 | 2.0 | 5.0 | 0.00 | 0.04 | 0.00 | 86 | 1011.9 |
| 20260504022804 | 65 | 148 | 0.0 | 2.0 | 0.00 | 0.04 | 0.00 | 86 | 1011.8 |
| 20260504022305 | 65 | 148 | 1.0 | 2.0 | 0.00 | 0.05 | 0.00 | 86 | 1011.8 |
| 20260504021804 | 65 | 148 | 0.0 | 0.0 | 0.00 | 0.05 | 0.00 | 86 | 1011.8 |
| 20260504021304 | 65 | 148 | 0.0 | 0.0 | 0.00 | 0.05 | 0.00 | 86 | 1011.8 |
| 20260504020804 | 65 | 148 | 0.0 | 0.0 | 0.00 | 0.05 | 0.00 | 86 | 1011.8 |
| 20260504020304 | 65 | 148 | 0.0 | 0.0 | 0.00 | 0.05 | 0.00 | 86 | 1011.8 |
| 20260504015804 | 64 | 148 | 0.0 | 0.0 | 0.00 | 0.06 | 0.00 | 86 | 1011.8 |
| 20260504014804 | 65 | 148 | 1.0 | 2.0 | 0.00 | 0.06 | 0.00 | 86 | 1011.8 |
| 20260504014304 | 65 | 148 | 1.0 | 2.0 | 0.00 | 0.06 | 0.00 | 86 | 1011.8 |
| 20260504013304 | 65 | 148 | 0.0 | 2.0 | 0.00 | 0.06 | 0.00 | 86 | 1011.8 |
| 20260504012805 | 65 | 148 | 1.0 | 2.0 | 0.00 | 0.06 | 0.00 | 86 | 1011.7 |
| 20260504012304 | 65 | 148 | 1.0 | 2.0 | 0.00 | 0.06 | 0.00 | 85 | 1011.7 |
| 20260504011804 | 65 | 148 | 0.0 | 2.0 | 0.00 | 0.06 | 0.00 | 85 | 1011.7 |
| 20260504011304 | 65 | 148 | 0.0 | 2.0 | 0.00 | 0.06 | 0.00 | 84 | 1011.8 |
| 20260504010804 | 65 | 148 | 0.0 | 2.0 | 0.00 | 0.06 | 0.00 | 84 | 1011.7 |
| 20260504010304 | 65 | 148 | 1.0 | 2.0 | 0.00 | 0.06 | 0.00 | 84 | 1011.7 |
| 20260504005804 | 65 | 148 | 0.0 | 1.0 | 0.00 | 0.06 | 0.00 | 83 | 1011.6 |
| 20260504005305 | 66 | 148 | 1.0 | 2.0 | 0.00 | 0.06 | 0.00 | 82 | 1011.6 |
| 20260504004805 | 66 | 148 | 1.0 | 3.0 | 0.00 | 0.06 | 0.00 | 81 | 1011.6 |
| 20260504003804 | 66 | 147 | 1.0 | 3.0 | 0.00 | 0.06 | 0.00 | 81 | 1011.6 |
| 20260504003304 | 66 | 147 | 1.0 | 3.0 | 0.00 | 0.06 | 0.00 | 81 | 1011.7 |
| 20260504002804 | 66 | 147 | 1.0 | 3.0 | 0.00 | 0.06 | 0.00 | 80 | 1011.8 |
| 20260504002304 | 66 | 147 | 1.0 | 2.0 | 0.00 | 0.06 | 0.00 | 80 | 1011.9 |
| 20260504001804 | 66 | 147 | 1.0 | 1.0 | 0.00 | 0.06 | 0.00 | 80 | 1011.9 |
| 20260504001304 | 66 | 147 | 0.0 | 0.0 | 0.00 | 0.06 | 0.00 | 80 | 1012.0 |
| 20260504000803 | 66 | 147 | 0.0 | 0.0 | 0.00 | 0.06 | 0.00 | 80 | 1012.0 |
| 20260504000304 | 66 | 147 | 0.0 | 1.0 | 0.00 | 0.06 | 0.00 | 81 | 1012.1 |
| 20260503235804 | 66 | 147 | 2.0 | 3.0 | 0.00 | 0.06 | 0.00 | 81 | 1012.2 |
| 20260503235305 | 66 | 147 | 0.0 | 0.0 | 0.00 | 0.06 | 0.00 | 80 | 1012.3 |
| 20260503234804 | 66 | 147 | 0.0 | 3.0 | 0.00 | 0.06 | 0.00 | 80 | 1012.3 |
| 20260503233804 | 66 | 147 | 0.0 | 2.0 | 0.00 | 0.06 | 0.00 | 81 | 1012.4 |
| 20260503232804 | 66 | 148 | 0.0 | 0.0 | 0.00 | 0.06 | 0.00 | 81 | 1012.5 |
| 20260503232305 | 66 | 148 | 0.0 | 0.0 | 0.00 | 0.06 | 0.00 | 81 | 1012.5 |
| 20260503231805 | 66 | 148 | 0.0 | 0.0 | 0.00 | 0.06 | 0.00 | 81 | 1012.6 |
| 20260503231304 | 66 | 148 | 0.0 | 0.0 | 0.00 | 0.06 | 0.00 | 81 | 1012.7 |
| 20260503230804 | 66 | 148 | 0.0 | 0.0 | 0.00 | 0.06 | 0.00 | 80 | 1012.7 |
| 20260503225804 | 66 | 148 | 0.0 | 0.0 | 0.00 | 0.06 | 0.00 | 80 | 1012.7 |
| 20260503225305 | 66 | 148 | 0.0 | 0.0 | 0.00 | 0.06 | 0.00 | 80 | 1012.7 |
| 20260503224804 | 66 | 148 | 0.0 | 0.0 | 0.00 | 0.06 | 0.00 | 80 | 1012.6 |
| 20260503224304 | 66 | 148 | 0.0 | 0.0 | 0.00 | 0.06 | 0.00 | 80 | 1012.6 |
| 20260503223804 | 66 | 148 | 0.0 | 0.0 | 0.00 | 0.06 | 0.00 | 80 | 1012.6 |
| 20260503223304 | 66 | 148 | 0.0 | 0.0 | 0.00 | 0.06 | 0.00 | 80 | 1012.6 |
| 20260503222804 | 66 | 148 | 0.0 | 0.0 | 0.00 | 0.06 | 0.00 | 80 | 1012.6 |
| 20260503222304 | 66 | 148 | 0.0 | 5.0 | 0.00 | 0.06 | 0.00 | 80 | 1012.6 |
| 20260503221804 | 66 | 147 | 0.0 | 2.0 | 0.00 | 0.06 | 0.00 | 80 | 1012.6 |
| 20260503221304 | 66 | 147 | 0.0 | 3.0 | 0.00 | 0.06 | 0.00 | 80 | 1012.7 |
| 20260503220818 | 66 | 148 | 2.0 | 3.0 | 0.00 | 0.06 | 0.00 | 80 | 1012.6 |
| 20260503220305 | 66 | 147 | 1.0 | 3.0 | 0.00 | 0.06 | 0.00 | 80 | 1012.7 |
| 20260503215804 | 66 | 148 | 0.0 | 2.0 | 0.00 | 0.06 | 0.06 | 80 | 1012.4 |
| 20260503215304 | 66 | 148 | 2.0 | 5.0 | 0.00 | 0.06 | 0.06 | 80 | 1012.5 |
| 20260503214804 | 66 | 148 | 2.0 | 3.0 | 0.00 | 0.06 | 0.06 | 80 | 1012.6 |
| 20260503214304 | 66 | 147 | 0.0 | 2.0 | 0.00 | 0.06 | 0.06 | 80 | 1012.6 |
| 20260503213804 | 66 | 147 | 0.0 | 0.0 | 0.00 | 0.06 | 0.06 | 79 | 1012.7 |
| 20260503213304 | 66 | 147 | 0.0 | 0.0 | 0.00 | 0.06 | 0.06 | 79 | 1012.8 |
| 20260503212804 | 66 | 147 | 0.0 | 1.0 | 0.00 | 0.06 | 0.06 | 79 | 1013.1 |
| 20260503212305 | 66 | 147 | 1.0 | 2.0 | 0.00 | 0.06 | 0.06 | 79 | 1013.1 |
| 20260503211804 | 66 | 147 | 2.0 | 3.0 | 0.00 | 0.06 | 0.06 | 79 | 1013.0 |
| 20260503210804 | 66 | 147 | 2.0 | 5.0 | 0.00 | 0.06 | 0.06 | 78 | 1013.0 |
| 20260503210304 | 66 | 134 | 3.0 | 5.0 | 0.00 | 0.06 | 0.06 | 79 | 1013.0 |
| 20260503205804 | 66 | 146 | 2.0 | 3.0 | 0.00 | 0.06 | 0.06 | 78 | 1012.9 |
| 20260503204804 | 67 | 146 | 3.0 | 5.0 | 0.00 | 0.06 | 0.06 | 78 | 1012.7 |
| 20260503204304 | 67 | 146 | 3.0 | 5.0 | 0.00 | 0.06 | 0.06 | 78 | 1012.7 |
| 20260503203804 | 66 | 146 | 3.0 | 5.0 | 0.00 | 0.06 | 0.06 | 78 | 1012.6 |
| 20260503203304 | 66 | 146 | 2.0 | 5.0 | 0.00 | 0.06 | 0.06 | 78 | 1012.5 |
| 20260503202804 | 66 | 146 | 2.0 | 3.0 | 0.00 | 0.06 | 0.06 | 78 | 1012.5 |
| 20260503202304 | 66 | 146 | 1.0 | 3.0 | 0.00 | 0.06 | 0.06 | 78 | 1012.4 |
| 20260503201804 | 66 | 146 | 1.0 | 2.0 | 0.00 | 0.06 | 0.06 | 78 | 1012.3 |
| 20260503201304 | 66 | 146 | 1.0 | 3.0 | 0.00 | 0.06 | 0.06 | 78 | 1012.3 |
| 20260503200803 | 66 | 146 | 1.0 | 3.0 | 0.00 | 0.06 | 0.06 | 77 | 1012.2 |